1502204400.35,6662,22.94,74370.5,12.89,-25.13,-27.71,0,*7D
1502204401.55,6663,22.94,74382.8,12.89,-22.67,-24.31,0,*7F
1502204402.82,6664,22.94,74374.3,12.87,-23.19,-26.71,0,*78
1502204404.01,6665,22.94,74380.3,12.85,-22.67,-21.09,0,*7B
1502204405.23,6666,22.94,74378.5,12.85,-16.89,-17.45,0,*72
1502204406.48,6667,22.94,74384.3,12.87,-19.13,-20.83,0,*73
1502204407.71,6668,22.94,74380.3,12.85,-21.87,-25.65,0,*75
1502204408.93,6669,22.94,74372.8,12.85,-23.69,-24.61,0,*73
1502204410.12,6670,22.94,74378.5,12.85,-15.99,-19.17,0,*7E
1502204411.31,6671,22.94,74382.5,12.85,-16.89,-18.79,0,*74
1502204412.58,6672,22.94,74374.3,12.87,-23.03,-26.93,0,*78
1502204413.85,6673,22.94,74378.5,12.87,-24.41,-25.45,0,*70
1502204415.05,6674,22.94,74376.8,12.85,-20.89,-22.11,0,*73
1502204416.27,6675,22.94,74380.3,12.85,-22.21,-25.35,0,*73
1502204417.47,6676,22.94,74380.0,12.85,-21.47,-21.47,0,*72
1502204418.71,6677,22.94,74376.8,12.85,-23.49,-27.45,0,*7B
1502204419.9,6678,22.94,74376.5,12.85,-21.13,-22.07,0,*7A
1502204421.15,6679,22.94,74376.8,12.83,-22.31,-22.83,0,*72
1502204422.36,6680,22.94,74378.3,12.85,-21.63,-24.15,0,*7F
1502204423.58,6681,22.94,74378.5,12.85,-20.09,-20.19,0,*7B
1502204424.77,6682,22.94,74372.8,12.85,-23.89,-27.03,0,*7F
1502204426.02,6683,22.94,74376.3,12.83,-22.63,-23.23,0,*7B
1502204427.24,6684,22.94,74378.3,12.85,-16.69,-19.13,0,*7D
1502204428.44,6685,22.94,74378.8,12.85,-21.77,-24.51,0,*7F
1502204429.69,6686,22.94,74384.3,12.87,-18.55,-19.13,0,*7C
1502204430.9,6687,22.94,74384.5,12.83,-18.73,-22.41,0,*72
1502204432.13,6688,22.94,74378.0,12.81,-23.95,-26.39,0,*74
1502204433.36,6689,22.94,74382.8,12.83,-21.47,-20.89,0,*77
1502204434.59,6690,22.94,74380.5,12.83,-20.59,-20.09,0,*79
1502204435.78,6691,22.94,74380.5,12.85,-20.05,-24.61,0,*7D
1502204437.0,6692,22.94,74378.3,12.85,-22.21,-24.47,0,*7E
1502204438.23,6693,22.94,74382.8,12.85,-19.31,-22.11,0,*73
1502204439.45,6694,22.94,74380.0,12.85,-18.21,-21.27,0,*72
1502204440.64,6695,22.94,74380.0,12.85,-20.05,-19.13,0,*72
1502204441.89,6696,22.94,74376.5,12.85,-15.57,-17.97,0,*72
1502204443.11,6697,22.94,74386.0,12.85,-14.29,-15.01,0,*76
1502204444.32,6698,22.94,74384.5,12.85,-11.15,-13.01,0,*75
1502204445.55,6699,22.94,74382.0,12.89,-17.45,-22.67,0,*79
1502204446.81,6700,22.94,74384.0,12.91,-19.23,-20.73,0,*78
1502204448.05,6701,22.94,74384.0,12.91,-13.15,-14.05,0,*70
1502204449.26,6702,22.94,74376.3,12.91,-17.49,-19.07,0,*71
1502204450.46,6703,22.94,74376.8,12.89,-20.93,-24.47,0,*70
1502204451.69,6704,22.94,74382.8,12.91,-20.63,-21.39,0,*7D
1502204452.96,6705,22.94,74382.5,12.91,-14.79,-17.11,0,*7F
1502204454.16,6706,22.94,74380.0,12.89,-19.91,-20.29,0,*71
1502204455.38,6707,22.94,74378.5,12.91,-16.45,-19.71,0,*78
1502204456.6,6708,22.94,74380.8,12.91,-16.45,-16.79,0,*70
1502204457.86,6709,22.94,74378.5,12.91,-17.97,-22.97,0,*78
1502204459.08,6710,22.94,74376.8,12.91,-23.13,-24.77,0,*73
1502204460.33,6711,22.94,74378.3,12.91,-20.73,-21.87,0,*7D
1502204461.58,6712,22.94,74382.5,12.89,-20.35,-20.49,0,*76
1502204462.84,6713,22.94,74382.8,12.91,-15.57,-19.23,0,*7A
1502204464.06,6714,22.94,74378.5,12.89,-20.29,-23.99,0,*73
1502204465.27,6715,22.94,74378.3,12.91,-23.39,-25.35,0,*79
1502204466.51,6716,22.94,74380.5,12.95,-20.35,-19.27,0,*7D
1502204467.79,6717,22.94,74386.0,12.97,-17.97,-18.55,0,*76
1502204469.02,6718,22.94,74382.3,12.97,-16.75,-21.13,0,*7C
1502204470.3,6719,22.94,74386.0,12.97,-19.81,-21.67,0,*7A
1502204471.53,6720,22.94,74384.0,12.99,-17.49,-17.63,0,*75
1502204472.77,6721,22.94,74380.5,12.99,-15.21,-19.23,0,*72
1502204474.02,6722,22.94,74380.3,13.01,-21.63,-22.21,0,*7A
1502204475.3,6723,22.94,74380.0,13.01,-19.57,-20.79,0,*78
1502204476.55,6724,22.94,74378.3,13.01,-17.93,-18.69,0,*73
1502204477.81,6725,22.94,74376.5,13.03,-16.65,-18.93,0,*7D
1502204479.05,6726,22.94,74382.5,13.05,-15.01,-15.99,0,*7E
1502204480.29,6727,22.94,74386.8,13.05,-13.55,-14.89,0,*78
1502204481.52,6728,22.94,74380.0,13.09,-14.37,-19.91,0,*7C
1502204482.76,6729,22.94,74378.0,13.09,-21.33,-24.35,0,*7F
1502204484.02,6730,22.94,74378.0,13.09,-19.61,-19.71,0,*75
1502204485.25,6731,22.94,74372.3,13.09,-21.73,-24.61,0,*73
1502204486.5,6732,22.94,74378.5,13.09,-18.83,-18.55,0,*7D
1502204487.73,6733,22.94,74376.8,13.07,-18.31,-22.07,0,*75
1502204488.99,6734,22.94,74382.0,13.09,-14.19,-16.69,0,*75
1502204490.21,6735,22.94,74374.0,13.11,-21.09,-24.21,0,*77
1502204491.47,6736,22.94,74376.3,13.11,-21.87,-22.47,0,*74
1502204492.7,6737,22.94,74378.3,13.11,-19.65,-20.93,0,*79
1502204493.95,6738,22.94,74378.8,13.11,-19.41,-19.65,0,*73
1502204495.23,6739,22.94,74372.8,13.13,-16.17,-18.31,0,*7C
1502204496.51,6740,22.94,74378.5,13.13,-18.31,-21.97,0,*7E
1502204497.74,6741,22.94,74374.0,13.13,-19.95,-20.93,0,*75
1502204498.97,6742,22.94,74374.0,13.13,-15.53,-16.83,0,*74
1502204500.2,6743,23.0,74378.3,13.11,-14.29,-19.57,0,*7D
1502204501.45,6744,22.94,74374.5,13.13,-16.79,-18.59,0,*70
1502204502.7,6745,22.94,74376.0,13.13,-20.73,-22.47,0,*78
1502204503.95,6746,22.94,74368.5,13.13,-21.39,-24.25,0,*76
1502204505.18,6747,22.94,74370.0,13.13,-18.73,-19.17,0,*7C
1502204506.41,6748,22.94,74372.0,13.11,-16.09,-16.41,0,*7E
1502204507.67,6749,22.94,74374.3,13.13,-14.15,-18.31,0,*7B
1502204508.89,6750,22.94,74374.8,13.11,-18.49,-19.41,0,*72
1502204510.17,6751,23.0,74374.5,13.13,-18.59,-21.03,0,*7D
1502204511.39,6752,22.94,74370.3,13.11,-16.69,-18.17,0,*7E
1502204512.62,6753,23.0,74372.0,13.11,-19.57,-23.43,0,*74
1502204513.87,6754,22.94,74368.3,13.09,-17.25,-18.79,0,*70
1502204515.16,6755,22.94,74374.5,13.09,-19.61,-21.87,0,*74
1502204516.38,6756,23.0,74376.0,13.07,-16.45,-17.93,0,*70
1502204517.66,6757,23.0,74378.8,13.09,-15.85,-17.63,0,*7F
1502204518.89,6758,22.94,74368.3,13.09,-16.75,-20.05,0,*78
1502204520.14,6759,22.94,74372.8,13.09,-16.27,-18.25,0,*77
1502204521.39,6760,23.0,74378.3,13.09,-15.67,-19.41,0,*79
1502204522.62,6761,22.94,74374.3,13.09,-16.97,-20.25,0,*7C
1502204523.82,6762,23.0,74374.5,13.07,-17.49,-19.03,0,*7D
1502204525.1,6763,22.94,74376.5,13.09,-15.35,-16.09,0,*7E
1502204526.35,6764,22.94,74372.5,13.09,-15.53,-18.93,0,*74
1502204527.58,6765,23.0,74378.0,13.07,-14.83,-15.63,0,*75
1502204528.84,6766,23.0,74376.8,13.09,-13.69,-17.25,0,*7B
1502204530.09,6767,22.94,74376.0,13.09,-17.49,-20.15,0,*7B
1502204531.32,6768,22.94,74376.0,13.07,-15.43,-17.83,0,*79
1502204532.54,6769,22.94,74378.8,13.09,-14.33,-15.99,0,*79
1502204533.78,6770,23.0,74380.3,13.13,-12.93,-14.65,0,*74
1502204534.97,6771,22.94,74376.5,13.11,-13.73,-17.31,0,*7A
1502204536.2,6772,22.94,74378.5,13.17,-15.25,-17.35,0,*7E
1502204537.42,6773,23.0,74380.0,13.19,-14.11,-14.93,0,*78
1502204538.64,6774,23.0,74376.3,13.19,-11.73,-12.21,0,*71
1502204539.83,6775,23.0,74380.0,13.19,-13.07,-14.11,0,*74
1502204541.04,6776,23.0,74380.0,13.19,-10.57,-13.79,0,*78
1502204542.29,6777,23.0,74378.5,13.21,-12.79,-16.93,0,*7D
1502204543.55,6778,23.0,74376.5,13.21,-14.51,-16.83,0,*7F
1502204544.83,6779,23.0,74382.0,13.21,-13.83,-17.59,0,*70
1502204546.03,6780,23.0,74382.5,13.23,-14.19,-16.97,0,*73
1502204547.29,6781,22.94,74380.3,13.21,-13.83,-16.89,0,*7B
1502204548.49,6782,23.0,74384.0,13.23,-17.73,-20.05,0,*70
1502204549.74,6783,23.0,74384.3,13.23,-19.41,-22.47,0,*7A
1502204550.99,6784,23.0,74386.8,13.25,-18.89,-21.27,0,*7B
1502204552.21,6785,23.0,74386.8,13.27,-21.39,-23.39,0,*74
1502204553.43,6786,23.0,74388.5,13.27,-18.99,-20.09,0,*77
1502204554.65,6787,23.0,74384.0,13.27,-18.99,-19.75,0,*77
1502204555.88,6788,23.0,74384.0,13.29,-19.31,-22.57,0,*7D
1502204557.1,6789,22.94,74382.5,13.27,-19.47,-19.37,0,*7D
1502204558.34,6790,23.0,74378.5,13.29,-23.09,-25.75,0,*71
1502204559.57,6791,23.0,74390.3,13.29,-19.27,-21.43,0,*74
1502204560.79,6792,23.0,74378.5,13.29,-20.69,-22.73,0,*77
1502204562.04,6793,23.0,74376.0,13.27,-24.87,-27.51,0,*79
1502204563.27,6794,23.0,74378.5,13.25,-23.75,-26.17,0,*75
1502204564.5,6795,23.0,74380.0,13.25,-24.71,-25.87,0,*7D
1502204565.7,6796,23.0,74380.8,13.23,-22.63,-24.31,0,*71
1502204566.93,6797,23.0,74382.8,13.23,-22.93,-26.29,0,*74
1502204568.15,6798,23.0,74388.0,13.21,-22.41,-24.77,0,*7F
1502204569.37,6799,23.0,74384.5,13.21,-19.99,-21.43,0,*71
1502204570.62,6800,23.0,74386.8,13.21,-21.73,-20.79,0,*79
1502204571.87,6801,23.0,74390.3,13.23,-21.03,-20.79,0,*7D
1502204573.1,6802,22.94,74378.8,13.23,-22.17,-23.75,0,*77
1502204574.32,6803,23.0,74380.5,13.21,-23.39,-24.77,0,*7C
1502204575.55,6804,23.0,74384.0,13.23,-21.13,-22.47,0,*76
1502204576.75,6805,23.0,74382.8,13.23,-23.43,-25.39,0,*7E
1502204577.94,6806,23.0,74392.5,13.23,-20.05,-22.67,0,*70
1502204579.22,6807,23.0,74386.0,13.21,-24.83,-27.23,0,*7C
1502204580.45,6808,23.0,74380.5,13.21,-25.13,-27.29,0,*71
1502204581.67,6809,23.0,74384.3,13.23,-25.45,-28.31,0,*77
1502204582.9,6810,23.0,74390.8,13.19,-26.07,-27.99,0,*7E
1502204584.16,6811,23.0,74394.3,13.17,-26.71,-28.75,0,*7D
1502204585.42,6812,23.0,74394.5,13.13,-23.79,-26.33,0,*7B
1502204586.64,6813,23.0,74384.5,13.11,-26.93,-29.67,0,*77
1502204587.93,6814,23.0,74386.0,13.09,-27.45,-30.01,0,*7B
1502204589.19,6815,23.0,74384.3,13.09,-27.67,-30.17,0,*7D
1502204590.42,6816,23.0,74386.0,13.03,-27.45,-30.45,0,*73
1502204591.65,6817,23.0,74386.8,13.03,-28.09,-30.67,0,*75
1502204592.89,6818,23.0,74386.0,13.01,-27.29,-29.83,0,*77
1502204594.12,6819,23.0,74386.5,12.99,-26.97,-29.45,0,*78
1502204595.32,6820,23.0,74380.0,12.99,-26.61,-28.97,0,*75
1502204596.56,6821,23.0,74382.8,12.97,-25.87,-28.31,0,*7D
1502204597.78,6822,23.0,74382.0,12.95,-25.45,-27.89,0,*7E
1502204599.04,6823,23.0,74382.0,12.97,-23.59,-25.81,0,*7C
1502204600.26,6824,23.0,74386.0,12.95,-25.81,-28.37,0,*7A
1502204601.52,6825,23.0,74382.8,12.97,-26.29,-28.85,0,*71
1502204602.76,6826,23.0,74376.8,12.95,-25.45,-26.71,0,*7C
1502204603.95,6827,23.0,74382.3,12.95,-23.39,-24.31,0,*76
1502204605.17,6828,23.0,74386.5,12.91,-23.09,-25.35,0,*7B
1502204606.4,6829,23.0,74386.5,12.95,-25.35,-27.35,0,*75
1502204607.61,6830,23.0,74390.3,12.95,-23.09,-25.49,0,*7D
1502204608.86,6831,23.0,74376.8,12.91,-25.49,-28.05,0,*7F
1502204610.13,6832,23.0,74378.5,12.91,-24.87,-26.93,0,*7E
1502204611.38,6833,23.0,74384.8,12.91,-24.35,-26.71,0,*7A
1502204612.65,6834,23.0,74392.0,12.91,-24.41,-26.55,0,*78
1502204613.91,6835,23.0,74396.3,12.95,-25.55,-28.05,0,*72
1502204615.13,6836,23.0,74394.8,12.95,-25.97,-27.89,0,*74
1502204616.42,6837,23.0,74394.8,12.97,-24.71,-27.19,0,*77
1502204617.67,6838,23.0,74388.8,12.91,-25.55,-27.77,0,*71
1502204618.91,6839,23.0,74384.0,12.91,-25.91,-28.43,0,*70
1502204620.13,6840,23.0,74372.0,12.91,-25.61,-27.93,0,*73
1502204621.38,6841,23.0,74370.5,12.91,-24.21,-26.49,0,*71
1502204622.61,6842,23.0,74364.5,12.89,-23.49,-24.77,0,*7D
1502204623.84,6843,23.0,74366.8,12.95,-23.75,-26.29,0,*77
1502204625.12,6844,23.0,74370.0,12.97,-22.73,-24.71,0,*7A
1502204626.33,6845,23.0,74364.8,12.95,-25.49,-28.31,0,*7F
1502204627.55,6846,23.0,74378.3,12.95,-25.13,-27.35,0,*78
1502204628.8,6847,23.0,74380.3,12.91,-26.07,-28.79,0,*7C
1502204630.02,6848,23.0,74374.0,12.89,-25.29,-27.29,0,*7F
1502204631.26,6849,23.0,74378.5,12.89,-23.79,-25.75,0,*76
1502204632.49,6850,23.0,74382.0,12.89,-22.21,-23.43,0,*71
1502204633.72,6851,23.0,74374.3,12.89,-24.47,-26.13,0,*76
1502204634.95,6852,23.0,74372.0,12.91,-24.35,-25.09,0,*71
1502204636.19,6853,23.0,74374.3,12.87,-21.63,-23.95,0,*72
1502204637.45,6854,23.0,74384.0,12.89,-21.87,-23.85,0,*70
1502204638.69,6855,23.0,74386.0,12.91,-21.57,-24.93,0,*75
1502204639.92,6856,23.0,74382.3,12.89,-20.63,-23.29,0,*7F
1502204641.16,6857,23.0,74382.0,12.89,-23.03,-23.99,0,*70
1502204642.41,6858,23.0,74378.3,12.89,-20.99,-23.29,0,*74
1502204643.63,6859,23.0,74382.5,12.91,-20.73,-22.97,0,*7C
1502204644.89,6860,23.0,74380.3,12.91,-19.95,-21.67,0,*78
1502204646.11,6861,23.0,74380.8,12.91,-23.59,-26.23,0,*77
1502204647.3,6862,23.0,74378.5,12.95,-21.43,-22.57,0,*7E
1502204648.58,6863,23.0,74380.3,12.97,-20.35,-23.23,0,*7F
1502204649.85,6864,23.0,74386.0,12.97,-20.35,-22.77,0,*78
1502204651.08,6865,23.0,74384.3,12.95,-19.95,-21.53,0,*7E
1502204652.34,6866,23.0,74382.0,12.97,-20.53,-22.57,0,*78
1502204653.59,6867,23.0,74384.3,12.97,-19.65,-22.37,0,*70
1502204654.82,6868,23.0,74386.3,12.97,-21.17,-23.59,0,*78
1502204656.09,6869,23.0,74386.0,12.97,-21.83,-23.99,0,*78
1502204657.32,6870,23.0,74380.5,12.95,-22.47,-24.51,0,*7A
1502204658.54,6871,23.0,74380.5,12.95,-20.43,-22.21,0,*7C
1502204659.74,6872,23.0,74382.8,12.95,-22.63,-24.97,0,*74
1502204661.0,6873,23.0,74380.8,12.97,-22.27,-23.23,0,*7F
1502204662.22,6874,23.0,74384.0,12.95,-20.09,-23.19,0,*7D
1502204663.44,6875,23.0,74382.3,12.95,-21.93,-26.17,0,*75
1502204664.72,6876,23.0,74386.3,12.91,-23.65,-25.75,0,*7E
1502204665.97,6877,23.0,74388.5,12.91,-23.59,-26.33,0,*71
1502204667.17,6878,23.0,74384.5,12.95,-22.87,-25.49,0,*76
1502204668.38,6879,23.0,74390.0,12.95,-24.47,-27.13,0,*70
1502204669.6,6880,23.0,74386.0,12.97,-25.35,-27.71,0,*74
1502204670.8,6881,23.0,74382.8,12.95,-25.13,-27.89,0,*74
1502204672.03,6882,23.0,74382.5,12.95,-24.31,-26.71,0,*70
1502204673.29,6883,23.0,74386.3,12.97,-23.85,-26.45,0,*7C
1502204674.52,6884,23.0,74382.8,12.95,-24.21,-27.03,0,*73
1502204675.76,6885,23.0,74376.0,12.95,-24.71,-27.29,0,*7F
1502204676.98,6886,23.0,74372.3,12.97,-25.35,-27.89,0,*75
1502204678.22,6887,23.0,74380.3,12.97,-24.35,-26.87,0,*7A
1502204679.47,6888,23.0,74382.0,12.97,-25.45,-27.89,0,*7C
1502204680.69,6889,23.0,74380.3,12.97,-25.19,-27.71,0,*73
1502204681.92,6890,23.0,74382.8,12.97,-25.49,-28.15,0,*73
1502204683.2,6891,23.0,74386.3,12.97,-25.03,-27.45,0,*76
1502204684.49,6892,23.0,74382.5,12.97,-24.71,-27.19,0,*78
1502204685.74,6893,23.0,74382.3,12.97,-23.89,-26.33,0,*70
1502204686.98,6894,23.0,74386.8,12.99,-24.25,-26.61,0,*7F
1502204688.24,6895,23.0,74382.5,12.99,-24.41,-26.97,0,*75
1502204689.48,6896,23.0,74384.3,12.99,-24.51,-26.81,0,*70
1502204690.77,6897,23.0,74386.0,13.01,-24.25,-26.55,0,*7B
1502204691.98,6898,23.0,74384.0,12.99,-24.31,-26.61,0,*76
1502204693.21,6899,23.0,74382.5,13.03,-24.11,-26.39,0,*7A
1502204694.47,6900,23.0,74382.5,13.03,-23.49,-25.75,0,*7A
1502204695.73,6901,23.0,74382.5,13.05,-23.75,-26.17,0,*75
1502204697.01,6902,23.0,74380.5,13.05,-24.67,-27.23,0,*74
1502204698.25,6903,23.0,74376.5,13.05,-25.29,-27.71,0,*79
1502204699.5,6904,23.0,74376.5,13.03,-25.45,-28.05,0,*7E
1502204700.75,6905,23.0,74386.3,13.01,-25.45,-27.93,0,*7D
1502204702.0,6906,23.0,74384.5,13.01,-24.97,-27.39,0,*70
1502204703.23,6907,23.0,74382.0,13.01,-25.49,-27.93,0,*73
1502204704.48,6908,23.0,74386.0,13.01,-25.29,-27.67,0,*71
1502204705.73,6909,23.06,74386.0,13.01,-24.97,-27.39,0,*7F
1502204707.01,6910,23.0,74384.0,13.01,-24.67,-27.23,0,*73
1502204708.23,6911,23.0,74380.3,13.01,-24.93,-27.29,0,*73
1502204709.48,6912,23.0,74378.8,13.01,-24.67,-27.13,0,*72
1502204710.71,6913,23.0,74380.5,13.03,-24.61,-27.19,0,*7D
1502204711.93,6914,23.0,74382.3,13.03,-25.19,-27.39,0,*76
1502204713.18,6915,23.0,74384.5,13.03,-24.87,-27.19,0,*73
1502204714.44,6916,23.06,74386.0,13.03,-25.75,-28.21,0,*78
1502204715.67,6917,23.0,74384.3,13.01,-25.61,-28.15,0,*79
1502204716.92,6918,23.0,74386.3,13.03,-25.75,-28.25,0,*72
1502204718.15,6919,23.0,74382.5,12.99,-26.07,-28.59,0,*7C
1502204719.38,6920,23.06,74386.3,12.99,-25.45,-27.93,0,*7A
1502204720.61,6921,23.0,74384.8,12.99,-25.61,-28.09,0,*71
1502204721.83,6922,23.0,74386.0,12.99,-25.45,-27.67,0,*73
1502204723.07,6923,23.0,74378.3,12.99,-24.51,-26.93,0,*7C
1502204724.3,6924,23.0,74374.3,12.99,-25.65,-28.25,0,*7E
1502204725.56,6925,23.06,74384.5,13.01,-24.47,-26.29,0,*7C
1502204726.8,6926,23.0,74382.8,12.99,-25.97,-28.69,0,*79
1502204728.04,6927,23.0,74382.3,12.99,-24.31,-26.77,0,*74
1502204729.29,6928,23.0,74380.3,12.99,-24.67,-27.39,0,*73
1502204730.52,6929,23.06,74388.0,12.97,-24.57,-26.45,0,*75
1502204731.78,6930,23.0,74388.8,12.97,-23.59,-26.13,0,*77
1502204733.03,6931,23.0,74386.5,12.99,-24.67,-27.39,0,*7B
1502204734.26,6932,23.0,74386.8,12.97,-25.19,-27.89,0,*75
1502204735.49,6933,23.0,74384.5,12.97,-23.89,-26.61,0,*7C
1502204736.72,6934,23.06,74386.5,12.97,-24.51,-26.61,0,*79
1502204738.0,6935,23.0,74386.8,12.97,-23.23,-26.17,0,*7B
1502204739.25,6936,23.0,74388.0,12.95,-23.03,-25.45,0,*7C
1502204740.48,6937,23.0,74388.8,12.97,-23.89,-26.45,0,*7E
1502204741.73,6938,23.0,74386.8,12.97,-23.53,-26.45,0,*76
1502204742.95,6939,23.0,74388.8,12.99,-23.79,-25.61,0,*74
1502204744.19,6940,23.0,74386.3,12.97,-24.47,-27.03,0,*78
1502204745.41,6941,23.06,74386.3,12.97,-25.35,-27.67,0,*7F
1502204746.68,6942,23.06,74390.0,12.97,-24.21,-26.03,0,*7B
1502204747.97,6943,23.0,74386.3,12.97,-23.53,-25.97,0,*76
1502204749.23,6944,23.0,74390.0,12.97,-24.35,-26.97,0,*75
1502204750.48,6945,23.06,74388.3,12.97,-24.31,-26.71,0,*78
1502204751.75,6946,23.0,74390.3,12.97,-24.31,-26.81,0,*74
1502204752.98,6947,23.06,74390.8,13.01,-24.47,-27.13,0,*70
1502204754.21,6948,23.0,74386.5,12.99,-24.77,-27.23,0,*7F
1502204755.43,6949,23.06,74388.0,12.99,-24.93,-27.45,0,*74
1502204756.69,6950,23.0,74388.5,12.97,-25.71,-28.37,0,*75
1502204757.95,6951,23.0,74390.3,12.97,-24.83,-27.29,0,*78
1502204759.24,6952,23.0,74384.5,12.97,-25.55,-28.21,0,*76
1502204760.46,6953,23.06,74388.8,12.95,-26.29,-28.85,0,*73
1502204761.72,6954,23.0,74392.5,12.95,-25.55,-28.21,0,*72
1502204762.98,6955,23.06,74388.8,12.95,-25.55,-28.21,0,*73
1502204764.22,6956,23.0,74394.5,12.95,-26.13,-28.75,0,*70
1502204765.45,6957,23.0,74394.3,12.95,-25.35,-28.21,0,*77
1502204766.71,6958,23.0,74388.3,12.91,-26.17,-29.13,0,*7F
1502204767.96,6959,23.06,74384.5,12.91,-26.71,-29.45,0,*7D
1502204769.24,6960,23.0,74390.5,12.91,-25.55,-28.25,0,*75
1502204770.48,6961,23.0,74390.5,12.91,-25.61,-28.21,0,*77
1502204771.74,6962,23.06,74396.8,12.91,-25.49,-28.05,0,*78
1502204772.93,6963,23.06,74396.0,12.89,-25.09,-27.55,0,*7E
1502204774.15,6964,23.06,74388.8,12.91,-26.23,-28.69,0,*7B
1502204775.35,6965,23.0,74390.5,12.89,-25.61,-28.15,0,*7D
1502204776.55,6966,23.06,74398.8,12.89,-25.13,-27.55,0,*70
1502204777.84,6967,23.06,74398.0,12.91,-24.71,-27.19,0,*75
1502204779.09,6968,23.06,74390.5,12.91,-25.55,-28.37,0,*7E
1502204780.29,6969,23.06,74386.0,12.89,-25.65,-28.15,0,*75
1502204781.55,6970,23.06,74382.0,12.89,-25.55,-28.09,0,*73
1502204782.75,6971,23.06,74384.0,12.89,-24.61,-27.13,0,*70
1502204784.01,6972,23.06,74386.8,12.89,-24.25,-26.71,0,*76
1502204785.25,6973,23.06,74386.8,12.91,-25.49,-28.09,0,*74
1502204786.51,6974,23.06,74386.5,12.89,-24.15,-26.77,0,*75
1502204787.72,6975,23.06,74388.3,12.91,-23.89,-26.49,0,*72
1502204788.99,6976,23.06,74388.8,12.91,-23.95,-26.55,0,*71
1502204790.24,6977,23.06,74388.5,12.95,-24.15,-26.71,0,*7D
1502204791.47,6978,23.06,74388.5,12.97,-23.39,-26.03,0,*7C
1502204792.72,6979,23.06,74390.0,12.95,-23.53,-26.17,0,*76
1502204793.98,6980,23.06,74390.0,12.95,-23.33,-25.71,0,*75
1502204795.26,6981,23.06,74392.0,12.97,-23.85,-26.33,0,*7E
1502204796.51,6982,23.06,74392.3,13.01,-23.53,-25.91,0,*73
1502204797.78,6983,23.06,74388.5,12.99,-24.25,-26.81,0,*76
1502204799.01,6984,23.06,74382.8,12.99,-25.75,-28.31,0,*70
1502204800.28,6985,23.06,74388.0,13.01,-24.51,-26.97,0,*74
1502204801.54,6986,23.06,74388.3,13.01,-24.25,-26.65,0,*79
1502204802.82,6987,23.06,74386.3,13.01,-24.41,-26.81,0,*70
1502204804.1,6988,23.06,74388.5,13.01,-23.65,-25.97,0,*7A
1502204805.39,6989,23.06,74392.5,13.01,-23.49,-25.97,0,*75
1502204806.62,6990,23.06,74392.0,13.03,-23.23,-25.61,0,*7A
1502204807.84,6991,23.06,74390.3,13.05,-25.19,-27.51,0,*73
1502204809.04,6992,23.0,74384.0,13.03,-25.23,-27.03,0,*78
1502204810.29,6993,23.06,74386.8,13.05,-24.15,-27.13,0,*7A
1502204811.53,6994,23.06,74388.0,13.01,-24.77,-27.29,0,*74
1502204812.76,6995,23.06,74384.0,13.03,-23.59,-25.75,0,*77
1502204813.99,6996,23.06,74384.3,13.03,-24.35,-26.71,0,*7E
1502204815.2,6997,23.06,74386.3,13.03,-24.05,-25.61,0,*7E
1502204816.45,6998,23.06,74384.5,13.05,-22.73,-23.75,0,*73
1502204817.72,6999,23.06,74384.8,13.05,-21.33,-24.15,0,*74
1502204818.98,7000,23.06,74386.0,13.05,-22.41,-26.29,0,*77
1502204820.23,7001,23.06,74384.3,13.07,-21.03,-24.67,0,*79
1502204821.46,7002,23.06,74384.8,13.07,-20.43,-23.19,0,*71
1502204822.74,7003,23.06,74384.0,13.09,-20.49,-23.03,0,*7F
1502204823.98,7004,23.06,74386.0,13.09,-21.63,-24.11,0,*75
1502204825.23,7005,23.06,74384.5,13.13,-23.29,-25.91,0,*7A
1502204826.49,7006,23.06,74384.5,13.09,-24.31,-26.97,0,*79
1502204827.74,7007,23.06,74378.8,13.07,-25.03,-27.45,0,*78
1502204828.96,7008,23.06,74372.8,13.09,-23.39,-25.91,0,*7D
1502204830.17,7009,23.06,74368.3,13.07,-23.43,-24.57,0,*74
1502204831.38,7010,23.06,74364.5,13.07,-23.59,-25.49,0,*79
1502204832.61,7011,23.06,74372.8,13.07,-23.75,-24.83,0,*71
1502204833.83,7012,23.06,74378.0,13.07,-21.47,-24.67,0,*7B
1502204835.04,7013,23.06,74372.3,13.07,-24.05,-25.65,0,*7A
1502204836.3,7014,23.06,74374.5,13.05,-24.35,-26.17,0,*7A
1502204837.5,7015,23.06,74376.3,13.03,-21.09,-22.93,0,*7F
1502204838.72,7016,23.06,74372.5,13.03,-24.93,-28.05,0,*7F
1502204839.92,7017,23.06,74382.8,13.03,-23.09,-24.05,0,*76
1502204841.15,7018,23.06,74380.5,13.01,-18.83,-21.09,0,*78
1502204842.38,7019,23.06,74376.3,13.05,-21.17,-24.31,0,*74
1502204843.58,7020,23.06,74376.0,13.03,-22.27,-25.09,0,*72
1502204844.83,7021,23.06,74372.5,13.01,-23.33,-25.91,0,*74
1502204846.06,7022,23.06,74376.0,13.03,-20.49,-23.09,0,*7C
1502204847.29,7023,23.06,74372.0,13.03,-23.29,-26.23,0,*75
1502204848.51,7024,23.06,74376.5,13.03,-23.95,-25.87,0,*78
1502204849.77,7025,23.06,74382.0,13.01,-20.83,-22.87,0,*78
1502204850.96,7026,23.06,74380.5,13.03,-20.29,-22.27,0,*73
1502204852.21,7027,23.06,74376.8,13.01,-22.53,-23.65,0,*78
1502204853.45,7028,23.06,74376.5,13.03,-22.17,-22.93,0,*7D
1502204854.65,7029,23.06,74374.5,13.03,-21.43,-23.09,0,*7C
1502204855.94,7030,23.06,74378.3,13.05,-19.61,-23.03,0,*73
1502204857.14,7031,23.06,74384.5,13.03,-20.43,-22.93,0,*76
1502204858.37,7032,23.06,74380.0,13.03,-19.17,-21.57,0,*75
1502204859.6,7033,23.06,74380.0,13.05,-21.13,-21.63,0,*7A
1502204860.86,7034,23.06,74378.0,13.05,-19.61,-21.77,0,*76
1502204862.13,7035,23.06,74380.3,13.05,-19.81,-20.83,0,*73
1502204863.39,7036,23.06,74382.0,13.05,-18.41,-20.19,0,*7E
1502204864.62,7037,23.06,74384.3,13.07,-21.67,-22.93,0,*73
1502204865.82,7038,23.06,74384.3,13.07,-22.63,-23.09,0,*79
1502204867.08,7039,23.06,74382.3,13.07,-21.03,-20.99,0,*77
1502204868.34,7040,23.06,74382.5,13.09,-19.57,-20.25,0,*7A
1502204869.59,7041,23.06,74382.8,13.09,-18.41,-20.79,0,*74
1502204870.84,7042,23.06,74382.0,13.09,-21.73,-23.53,0,*77
1502204872.07,7043,23.06,74384.3,13.11,-21.39,-22.47,0,*75
1502204873.33,7044,23.06,74386.3,13.11,-19.41,-22.47,0,*76
1502204874.58,7045,23.06,74386.0,13.11,-21.67,-23.49,0,*77
1502204875.83,7046,23.06,74386.8,13.17,-21.13,-22.17,0,*7B
1502204877.07,7047,23.06,74380.5,13.17,-21.97,-24.05,0,*73
1502204878.31,7048,23.06,74382.8,13.17,-21.17,-23.53,0,*70
1502204879.53,7049,23.06,74380.5,13.19,-20.09,-21.33,0,*75
1502204880.72,7050,23.06,74382.5,13.19,-22.03,-22.57,0,*74
1502204881.96,7051,23.06,74390.0,13.17,-20.05,-22.73,0,*79
1502204883.17,7052,23.06,74386.3,13.19,-22.07,-25.29,0,*7C
1502204884.38,7053,23.06,74386.0,13.19,-21.63,-23.99,0,*71
1502204885.62,7054,23.06,74384.3,13.19,-21.27,-23.95,0,*7A
1502204886.82,7055,23.06,74380.5,13.19,-21.47,-23.79,0,*7F
1502204888.04,7056,23.06,74384.8,13.21,-21.13,-21.77,0,*7A
1502204889.27,7057,23.06,74388.0,13.21,-18.69,-20.09,0,*74
1502204890.5,7058,23.06,74386.5,13.23,-18.31,-22.07,0,*78
1502204891.73,7059,23.06,74384.0,13.25,-19.27,-22.03,0,*7D
1502204892.95,7060,23.06,74386.3,13.23,-21.73,-23.65,0,*7A
1502204894.15,7061,23.06,74390.3,13.23,-22.97,-24.31,0,*74
1502204895.41,7062,23.06,74388.3,13.23,-23.03,-26.29,0,*70
1502204896.65,7063,23.06,74386.0,13.23,-21.57,-23.29,0,*77
1502204897.92,7064,23.06,74384.3,13.21,-19.41,-23.53,0,*73
1502204899.14,7065,23.06,74388.8,13.23,-20.05,-21.97,0,*70
1502204900.39,7066,23.06,74388.8,13.23,-19.27,-23.29,0,*7E
1502204901.66,7067,23.06,74390.3,13.21,-21.27,-22.21,0,*7F
1502204902.86,7068,23.06,74388.0,13.23,-21.73,-23.89,0,*70
1502204904.11,7069,23.06,74384.0,13.23,-18.59,-19.85,0,*76
1502204905.33,7070,23.06,74380.0,13.21,-21.47,-24.97,0,*74
1502204906.57,7071,23.06,74384.5,13.23,-20.19,-22.21,0,*76